Lafayette, LA

11:39 AM CST on November 23, 2017 (GMT -0600)
Lafayette Regional

Weather History for KLFT - January, 2013

Change the Weather History Date:

Tuesday, January 1, 2013

  Actual Average Record
Temperature  
Mean Temperature 59 °F 52 °F  
Max Temperature 68 °F 62 °F 81 °F (1952)
Min Temperature 49 °F 43 °F 21 °F (1964)
Degree Days  
Heating Degree Days 6 13  
Month to date heating degree days 6 13  
Since 1 July heating degree days 496 567  
Growing Degree Days 9 (Base 50)    
Moisture  
Dew Point 56 °F    
Average Humidity 89    
Maximum Humidity 100    
Minimum Humidity 78    
Precipitation  
Precipitation 1.38 in 0.17 in 1.71 in (1968)
Month to date precipitation 1.38 0.17  
Year to date precipitation 1.38 0.17  
Snow  
Snow 0.00 in 0.00 in 0.00 in ()
Month to date snowfall 0.0  
Since 1 July snowfall 0.0 0.0  
Snow Depth 0.00 in    
Sea Level Pressure  
Sea Level Pressure 30.01 in    
Wind  
Wind Speed 11 mph (North)    
Max Wind Speed 21 mph    
Max Gust Speed 26 mph    
Visibility 7 miles    
Events Rain    
T = Trace of Precipitation, MM = Missing Value Source: NWS Daily Summary

Daily Weather History Graph

Daily Weather History Graph

Search for Another Location

Airport or City:

Trip Planner

Search our weather history database for the weather conditions in past years. The results will help you decide how hot, cold, wet, or windy it might be!

Date:

Astronomy

Jan. 01, 2013 Rise Set
Actual Time 7:04 AM CST 5:19 PM CST
Civil Twilight 6:38 AM CST 5:45 PM CST
Nautical Twilight 6:08 AM CST 6:15 PM CST
Astronomical Twilight 5:39 AM CST 6:44 PM CST
Moon 9:30 PM CST (1/1) 9:35 AM CST (1/1)
Length of Visible Light 11h 07m
Length of Day
10h 14m
Waning Gibbous, 83% of the Moon is Illuminated
Jan 1
Waning Gibbous
Jan 4
Last Quarter
Jan 11
New
Jan 18
First Quarter
Jan 26
Full

Hourly Weather History & Observations

Time (CST) Temp. Dew Point Humidity Pressure Visibility Wind Dir Wind Speed Gust Speed Precip Events Conditions
12:53 AM 64.0 °F 57.9 °F 80% 30.00 in 10.0 mi SSE 6.9 mph - N/A   Overcast
1:53 AM 64.9 °F 59.0 °F 81% 29.99 in 10.0 mi South 9.2 mph - N/A   Overcast
2:53 AM 66.0 °F 60.1 °F 81% 29.97 in 10.0 mi South 9.2 mph 16.1 mph N/A   Overcast
3:53 AM 64.9 °F 60.1 °F 84% 29.96 in 10.0 mi South 9.2 mph - N/A   Overcast
4:53 AM 64.9 °F 60.1 °F 84% 29.94 in 10.0 mi South 13.8 mph 19.6 mph N/A   Overcast
5:53 AM 66.0 °F 60.1 °F 81% 29.93 in 10.0 mi South 9.2 mph - N/A   Overcast
6:53 AM 66.2 °F 60.8 °F 83% 29.94 in 10.0 mi South 9.2 mph - N/A   Overcast
7:53 AM 68.0 °F 62.1 °F 81% 29.95 in 10.0 mi South 10.4 mph 21.9 mph N/A   Overcast
8:53 AM 68.0 °F 62.1 °F 81% 29.98 in 10.0 mi SSW 8.1 mph - N/A   Overcast
9:12 AM 68.0 °F 62.6 °F 83% 29.99 in 10.0 mi NNW 10.4 mph - N/A   Overcast
9:46 AM 64.4 °F 60.8 °F 88% 29.99 in 3.0 mi NNE 9.2 mph - 0.03 in Rain Rain
9:53 AM 63.0 °F 61.0 °F 93% 30.00 in 2.5 mi North 5.8 mph - 0.06 in Rain Heavy Rain
10:02 AM 62.6 °F 60.8 °F 94% 30.00 in 4.0 mi NNE 5.8 mph - 0.00 in Rain Light Rain
10:20 AM 62.6 °F 60.8 °F 94% 30.02 in 2.0 mi NW 9.2 mph - 0.08 in Rain Heavy Rain
10:49 AM 62.6 °F 60.8 °F 94% 29.99 in 2.0 mi ESE 3.5 mph - 0.37 in Rain Heavy Rain
10:53 AM 62.1 °F 61.0 °F 96% 30.00 in 2.0 mi ESE 3.5 mph - 0.42 in Rain Heavy Rain
11:00 AM 62.6 °F 60.8 °F 94% 29.97 in 1.0 mi East 4.6 mph - 0.07 in Rain Heavy Rain
11:13 AM 62.6 °F 60.8 °F 94% 29.97 in 3.0 mi Calm Calm - 0.12 in Rain Rain
11:26 AM 62.6 °F 62.6 °F 100% 29.96 in 2.5 mi Calm Calm - 0.16 in Rain Rain
11:53 AM 63.0 °F 62.1 °F 97% 29.95 in 1.5 mi Calm Calm - 0.30 in Rain Rain
12:07 PM 62.6 °F 62.6 °F 100% 29.95 in 1.8 mi NNW 6.9 mph - 0.07 in Rain Rain
12:21 PM 62.6 °F 60.8 °F 94% 29.95 in 1.5 mi NNW 11.5 mph - 0.16 in Rain Rain
12:27 PM 60.8 °F 57.2 °F 88% 29.95 in 2.0 mi NNW 16.1 mph 20.7 mph 0.19 in Rain Rain
12:53 PM 57.9 °F 55.9 °F 93% 29.96 in 4.0 mi NNW 13.8 mph - 0.28 in Rain Light Rain
1:02 PM 57.2 °F 55.4 °F 94% 29.95 in 2.0 mi North 13.8 mph - 0.04 in Rain Heavy Rain
1:53 PM 55.0 °F 52.0 °F 89% 29.96 in 2.5 mi North 16.1 mph 23.0 mph 0.13 in   Overcast
2:00 PM 55.4 °F 51.8 °F 88% 29.97 in 10.0 mi NNW 19.6 mph 24.2 mph N/A   Overcast
2:53 PM 54.0 °F 51.1 °F 90% 29.99 in 10.0 mi North 16.1 mph 24.2 mph 0.02 in Rain Light Rain
3:53 PM 53.6 °F 51.8 °F 94% 30.00 in 7.0 mi North 13.8 mph - N/A Rain Light Rain
4:53 PM 53.1 °F 50.0 °F 89% 30.03 in 6.0 mi North 13.8 mph 23.0 mph 0.08 in Rain Light Rain
5:27 PM 53.6 °F 50.0 °F 88% 30.05 in 10.0 mi North 12.7 mph - 0.03 in Rain Light Rain
5:53 PM 53.1 °F 48.9 °F 86% 30.06 in 10.0 mi North 12.7 mph - 0.03 in   Overcast
6:53 PM 52.0 °F 48.9 °F 89% 30.07 in 10.0 mi North 9.2 mph - 0.02 in   Overcast
7:53 PM 52.0 °F 48.9 °F 89% 30.10 in 10.0 mi North 10.4 mph - 0.00 in Rain Light Rain
8:31 PM 51.8 °F 48.2 °F 88% 30.12 in 10.0 mi North 9.2 mph - 0.01 in Rain Light Rain
8:53 PM 51.1 °F 48.0 °F 89% 30.12 in 10.0 mi North 11.5 mph - 0.01 in   Overcast
9:42 PM 51.8 °F 48.2 °F 88% 30.12 in 10.0 mi North 13.8 mph - N/A   Overcast
9:53 PM 51.1 °F 46.9 °F 86% 30.14 in 10.0 mi North 12.7 mph - N/A   Overcast
10:53 PM 50.0 °F 46.0 °F 86% 30.14 in 10.0 mi NNE 15.0 mph 20.7 mph N/A   Overcast
11:53 PM 48.9 °F 45.0 °F 86% 30.14 in 10.0 mi North 12.7 mph - N/A   Overcast